Location: Diati
(11.8376°N, 2.5966°E)
Time: 17:25:06
(UTC+00:00)

Cosmos 2150 Rocket - Pass Details

Date: 21 September 2020
Orbit: 748 x 808 km, 74.0° (Epoch: 19 October)

Event Time Altitude Azimuth Distance (km) Brightness Sun altitude
Rises 18:35:45 0° 199° (SSW) 3,227 7.4 -13.0°
Reaches altitude 10° 18:38:08 10° 202° (SSW) 2,310 6.7 -13.6°
Maximum altitude 18:43:20 65° 283° (WNW) 855 4.5 -14.8°
Drops below altitude 10° 18:48:38 10° 5° (N) 2,349 6.5 -16.1°
Sets 18:51:04 0° 8° (N) 3,287 7.2 -16.7°
